Weather History for New York, NY

Change the Weather History Date:

Friday, March 1, 2013

  Actual Average Record
Temperature  
Mean Temperature 41 °F 38 °F  
Max Temperature 44 °F 45 °F 68 °F (1972)
Min Temperature 37 °F 31 °F 8 °F (1980)
Degree Days  
Heating Degree Days 24 27  
Month to date heating degree days 24 27  
Since 1 July heating degree days 3219 3456  
Cooling Degree Days 0 0  
Month to date cooling degree days 0 0  
Year to date cooling degree days 0 0  
Moisture  
Dew Point 27 °F    
Average Humidity 63    
Maximum Humidity 76    
Minimum Humidity 49    
Precipitation  
Precipitation 0.00 in 0.12 in 2.23 in (1987)
Month to date precipitation 0.00 0.12  
Year to date precipitation 5.84 6.05  
Snow  
Snow 0.00 in 0.20 in 4.30 in (1952)
Month to date snowfall 0.0 0.2  
Since 1 July snowfall 16.1 22.2  
Snow Depth 0.00 in    
Sea Level Pressure  
Sea Level Pressure 29.69 in    
Wind  
Wind Speed 13 mph (NW)    
Max Wind Speed 21 mph    
Max Gust Speed 26 mph    
Visibility 10 miles    
Events      
T = Trace of Precipitation, MM = Missing Value Source: NWS Daily Summary

Daily Weather History Graph

Daily Weather History Graph

Search for Another Location

Airport:

Trip Planner

Search our weather history database for the weather conditions in past years. The results will help you decide how hot, cold, wet, or windy it might be!

Date:

Astronomy

Mar. 01, 2013 Rise Set
Actual Time 6:29 AM EST 5:47 PM EST
Civil Twilight 6:01 AM EST 6:14 PM EST
Nautical Twilight 5:30 AM EST 6:46 PM EST
Astronomical Twilight 4:58 AM EST 7:18 PM EST
Moon 10:19 PM EST (3/1) 8:12 AM EST (3/1)
Length of Visible Light 12h 12m
Length of Day
11h 17m
Waning Gibbous, 83% of the Moon is Illuminated
Mar 1
Waning Gibbous
Mar 4
Last Quarter
Mar 11
New
Mar 19
First Quarter
Mar 27
Full

Hourly Weather History & Observations

Time (EST) Temp. Windchill Dew Point Humidity Pressure Visibility Wind Dir Wind Speed Gust Speed Precip Events Conditions
12:51 AM 39.0 °F 32.3 °F 30.0 °F 70% 29.61 in 10.0 mi NW 10.4 mph - N/A   Scattered Clouds
1:51 AM 37.9 °F 30.9 °F 30.0 °F 73% 29.60 in 10.0 mi NW 10.4 mph - N/A   Partly Cloudy
2:51 AM 37.9 °F 31.5 °F 28.9 °F 70% 29.61 in 10.0 mi NW 9.2 mph - N/A   Scattered Clouds
3:51 AM 37.9 °F 30.0 °F 28.9 °F 70% 29.62 in 10.0 mi NW 12.7 mph - N/A   Clear
4:51 AM 37.0 °F 28.5 °F 28.9 °F 73% 29.63 in 10.0 mi NW 13.8 mph - N/A   Partly Cloudy
5:51 AM 37.0 °F 30.4 °F 28.9 °F 73% 29.65 in 10.0 mi WNW 9.2 mph - N/A   Partly Cloudy
6:51 AM 37.0 °F 31.0 °F 28.9 °F 73% 29.65 in 10.0 mi NW 8.1 mph - N/A   Partly Cloudy
7:51 AM 37.9 °F 30.0 °F 28.9 °F 70% 29.68 in 10.0 mi NW 12.7 mph - N/A   Partly Cloudy
8:51 AM 39.9 °F 32.1 °F 28.9 °F 65% 29.69 in 10.0 mi NW 13.8 mph - N/A   Mostly Cloudy
9:51 AM 41.0 °F 34.3 °F 27.0 °F 57% 29.69 in 10.0 mi NNW 11.5 mph - N/A   Mostly Cloudy
10:51 AM 42.1 °F 35.2 °F 27.0 °F 55% 29.70 in 10.0 mi NW 12.7 mph - N/A   Overcast
11:51 AM 41.0 °F 35.2 °F 27.0 °F 57% 29.70 in 10.0 mi NNW 9.2 mph - N/A   Overcast
12:51 PM 43.0 °F 38.8 °F 27.0 °F 53% 29.69 in 10.0 mi NNW 6.9 mph - N/A   Overcast
1:51 PM 44.1 °F 39.0 °F 26.1 °F 49% 29.68 in 10.0 mi NNW 9.2 mph - N/A   Overcast
2:51 PM 43.0 °F 35.1 °F 26.1 °F 51% 29.68 in 10.0 mi NW 17.3 mph - N/A   Overcast
3:51 PM 43.0 °F 37.2 °F 26.1 °F 51% 29.68 in 10.0 mi NW 10.4 mph - N/A   Overcast
4:51 PM 43.0 °F 35.1 °F 25.0 °F 49% 29.70 in 10.0 mi NW 17.3 mph - N/A   Overcast
5:51 PM 42.1 °F 33.9 °F 26.1 °F 53% 29.72 in 10.0 mi NW 17.3 mph - N/A   Overcast
6:51 PM 39.9 °F 31.1 °F 28.0 °F 63% 29.74 in 10.0 mi NW 17.3 mph - N/A   Overcast
7:51 PM 39.9 °F 31.4 °F 27.0 °F 60% 29.75 in 10.0 mi NNW 16.1 mph 23.0 mph N/A   Overcast
8:51 PM 39.0 °F 29.9 °F 26.1 °F 60% 29.76 in 10.0 mi NNW 17.3 mph 21.9 mph N/A   Overcast
9:51 PM 39.0 °F 30.3 °F 25.0 °F 57% 29.76 in 10.0 mi NW 16.1 mph 25.3 mph N/A   Overcast
10:51 PM 37.9 °F 28.5 °F 24.1 °F 57% 29.77 in 10.0 mi NNW 17.3 mph 24.2 mph N/A   Overcast
11:51 PM 37.9 °F 30.0 °F 24.1 °F 57% 29.77 in 10.0 mi NNW 12.7 mph - N/A   Overcast